JST594 YMML-YPAD

Flight info

Callsign JST594
Flight time 1h 1m
Altitude 35000
Route PEDNI1/27 PEDNI H345 AD DCT
Aircraft A320/M-VGDW/C

Departure

Time 2026-05-05 08:09
Airport Melbourne Airport (YMML)

Arrival

Time 2026-05-05 09:11
Airport Adelaide International Airport (YPAD)
Time Latitude Longitude Altitude Speed Heading
2026-05-05 07:44 -37.67130 144.84640 358 ft 0 kts 353°
2026-05-05 07:58 -37.67131 144.84640 356 ft 2 kts 353°
2026-05-05 07:58 -37.67144 144.84642 362 ft 2 kts 353°
2026-05-05 07:59 -37.67158 144.84644 363 ft 2 kts 353°
2026-05-05 07:59 -37.67171 144.84646 360 ft 2 kts 351°
2026-05-05 07:59 -37.67184 144.84650 357 ft 2 kts 340°
2026-05-05 07:59 -37.67196 144.84657 362 ft 2 kts 313°
2026-05-05 08:00 -37.67200 144.84662 355 ft 0 kts 283°
2026-05-05 08:02 -37.67200 144.84661 355 ft 0 kts 283°
2026-05-05 08:02 -37.67198 144.84650 363 ft 3 kts 282°
2026-05-05 08:03 -37.67202 144.84600 360 ft 9 kts 258°
2026-05-05 08:03 -37.67211 144.84474 362 ft 13 kts 271°
2026-05-05 08:03 -37.67209 144.84357 365 ft 15 kts 272°
2026-05-05 08:03 -37.67179 144.84277 367 ft 14 kts 322°
2026-05-05 08:04 -37.67080 144.84246 370 ft 14 kts 354°
2026-05-05 08:04 -37.66971 144.84225 372 ft 17 kts 347°
2026-05-05 08:04 -37.66851 144.84205 374 ft 15 kts 354°
2026-05-05 08:04 -37.66741 144.84182 375 ft 17 kts 349°
2026-05-05 08:05 -37.66647 144.84165 375 ft 13 kts 355°
2026-05-05 08:05 -37.66552 144.84214 371 ft 19 kts 54°
2026-05-05 08:05 -37.66519 144.84368 360 ft 16 kts 82°
2026-05-05 08:05 -37.66501 144.84541 352 ft 23 kts 83°
2026-05-05 08:06 -37.66471 144.84738 332 ft 21 kts 75°
2026-05-05 08:06 -37.66339 144.84789 328 ft 23 kts 356°
2026-05-05 08:06 -37.66314 144.84787 329 ft 0 kts 356°
2026-05-05 08:07 -37.66313 144.84787 329 ft 1 kts 356°
2026-05-05 08:07 -37.66287 144.84785 330 ft 7 kts 356°
2026-05-05 08:07 -37.66228 144.84751 331 ft 11 kts 306°
2026-05-05 08:08 -37.66218 144.84688 337 ft 0 kts 271°
2026-05-05 08:09 -37.66214 144.84590 353 ft 43 kts 274°
2026-05-05 08:09 -37.66169 144.83827 390 ft 126 kts 274°
2026-05-05 08:09 -37.66091 144.82543 859 ft 154 kts 274°
2026-05-05 08:09 -37.66005 144.81174 1877 ft 159 kts 273°
2026-05-05 08:10 -37.65915 144.79708 2729 ft 176 kts 273°
2026-05-05 08:10 -37.65826 144.78119 3508 ft 185 kts 272°
2026-05-05 08:10 -37.65734 144.76469 4275 ft 195 kts 272°
2026-05-05 08:10 -37.65638 144.74770 4447 ft 192 kts 272°
2026-05-05 08:11 -37.65534 144.72965 4861 ft 222 kts 272°
2026-05-05 08:11 -37.65416 144.70906 5332 ft 250 kts 272°
2026-05-05 08:11 -37.65282 144.68618 5781 ft 276 kts 273°
2026-05-05 08:11 -37.65068 144.66116 6240 ft 296 kts 279°
2026-05-05 08:12 -37.64491 144.63598 6840 ft 303 kts 290°
2026-05-05 08:12 -37.63677 144.61129 7449 ft 305 kts 290°
2026-05-05 08:12 -37.62867 144.58646 8075 ft 307 kts 290°
2026-05-05 08:12 -37.62060 144.56144 8693 ft 309 kts 290°
2026-05-05 08:13 -37.61248 144.53617 9335 ft 311 kts 289°
2026-05-05 08:13 -37.60432 144.51075 9989 ft 314 kts 289°
2026-05-05 08:13 -37.59593 144.48464 10601 ft 327 kts 289°
2026-05-05 08:13 -37.58733 144.45786 11208 ft 340 kts 290°
2026-05-05 08:14 -37.57827 144.42974 11825 ft 351 kts 290°
2026-05-05 08:14 -37.56891 144.40078 12462 ft 362 kts 290°
2026-05-05 08:14 -37.55928 144.37100 13104 ft 371 kts 290°
2026-05-05 08:14 -37.54941 144.34056 13764 ft 379 kts 290°
2026-05-05 08:15 -37.53931 144.30946 14395 ft 386 kts 290°
2026-05-05 08:15 -37.52905 144.27786 14978 ft 391 kts 290°
2026-05-05 08:15 -37.51866 144.24588 15494 ft 399 kts 290°
2026-05-05 08:15 -37.50809 144.21339 15858 ft 411 kts 290°
2026-05-05 08:16 -37.49716 144.17982 16228 ft 416 kts 290°
2026-05-05 08:16 -37.48615 144.14607 16605 ft 416 kts 291°
2026-05-05 08:16 -37.47515 144.11239 16989 ft 416 kts 291°
2026-05-05 08:16 -37.46415 144.07872 17372 ft 415 kts 291°
2026-05-05 08:17 -37.45315 144.04509 17767 ft 415 kts 291°
2026-05-05 08:17 -37.44215 144.01146 18162 ft 415 kts 291°
2026-05-05 08:17 -37.43118 143.97796 18557 ft 414 kts 291°
2026-05-05 08:17 -37.42018 143.94441 18906 ft 414 kts 291°
2026-05-05 08:18 -37.40919 143.91097 19259 ft 413 kts 291°
2026-05-05 08:18 -37.39821 143.87758 19617 ft 412 kts 291°
2026-05-05 08:18 -37.38738 143.84471 19969 ft 412 kts 291°
2026-05-05 08:18 -37.37639 143.81137 20348 ft 416 kts 291°
2026-05-05 08:19 -37.36519 143.77742 20712 ft 425 kts 291°
2026-05-05 08:19 -37.35373 143.74271 21081 ft 433 kts 291°
2026-05-05 08:19 -37.34201 143.70727 21460 ft 441 kts 291°
2026-05-05 08:19 -37.33012 143.67138 21852 ft 446 kts 291°
2026-05-05 08:20 -37.31817 143.63539 22231 ft 446 kts 291°
2026-05-05 08:20 -37.30623 143.59951 22639 ft 444 kts 291°
2026-05-05 08:20 -37.29432 143.56376 23039 ft 443 kts 291°
2026-05-05 08:20 -37.28259 143.52854 23440 ft 443 kts 291°
2026-05-05 08:21 -37.27070 143.49284 23838 ft 442 kts 291°
2026-05-05 08:21 -37.25881 143.45715 24186 ft 445 kts 291°
2026-05-05 08:21 -37.24675 143.42103 24537 ft 451 kts 291°
2026-05-05 08:21 -37.23451 143.38445 24894 ft 456 kts 291°
2026-05-05 08:22 -37.22214 143.34753 25251 ft 460 kts 291°
2026-05-05 08:22 -37.20969 143.31042 25615 ft 463 kts 291°
2026-05-05 08:22 -37.19732 143.27356 25977 ft 466 kts 291°
2026-05-05 08:22 -37.18504 143.23567 26344 ft 468 kts 290°
2026-05-05 08:23 -37.17346 143.19752 26719 ft 467 kts 289°
2026-05-05 08:23 -37.16210 143.15951 27102 ft 465 kts 289°
2026-05-05 08:23 -37.15073 143.12159 27485 ft 464 kts 289°
2026-05-05 08:23 -37.13929 143.08379 27880 ft 462 kts 289°
2026-05-05 08:24 -37.12784 143.04620 28276 ft 461 kts 290°
2026-05-05 08:24 -37.11638 143.00873 28679 ft 460 kts 290°
2026-05-05 08:24 -37.10494 142.97141 29079 ft 459 kts 290°
2026-05-05 08:24 -37.09347 142.93413 29494 ft 457 kts 290°
2026-05-05 08:25 -37.08201 142.89689 29916 ft 456 kts 290°
2026-05-05 08:25 -37.07061 142.85991 30338 ft 454 kts 290°
2026-05-05 08:25 -37.05924 142.82309 30701 ft 453 kts 290°
2026-05-05 08:25 -37.04792 142.78646 31075 ft 451 kts 290°
2026-05-05 08:26 -37.03675 142.75035 31433 ft 449 kts 290°
2026-05-05 08:26 -37.02547 142.71390 31810 ft 447 kts 290°
2026-05-05 08:26 -37.01422 142.67763 32188 ft 445 kts 290°
2026-05-05 08:26 -37.00303 142.64159 32586 ft 443 kts 290°
2026-05-05 08:27 -36.99187 142.60573 32976 ft 441 kts 290°
2026-05-05 08:27 -36.98073 142.56993 33373 ft 440 kts 290°
2026-05-05 08:27 -36.96966 142.53443 33783 ft 438 kts 290°
2026-05-05 08:27 -36.95874 142.49947 34074 ft 435 kts 290°
2026-05-05 08:28 -36.93678 142.42924 34250 ft 433 kts 290°
2026-05-05 08:28 -36.91482 142.35915 34252 ft 432 kts 290°
2026-05-05 08:29 -36.89279 142.28906 34249 ft 433 kts 290°
2026-05-05 08:30 -36.86000 142.18507 34252 ft 430 kts 290°
2026-05-05 08:30 -36.83799 142.11542 34252 ft 430 kts 290°
2026-05-05 08:31 -36.81597 142.04592 34250 ft 430 kts 290°
2026-05-05 08:31 -36.79400 141.97683 34252 ft 428 kts 290°
2026-05-05 08:32 -36.77216 141.90821 34249 ft 428 kts 290°
2026-05-05 08:32 -36.75015 141.83925 34249 ft 428 kts 290°
2026-05-05 08:33 -36.72811 141.77044 34251 ft 424 kts 290°
2026-05-05 08:33 -36.70619 141.70214 34252 ft 425 kts 290°
2026-05-05 08:34 -36.68418 141.63367 34254 ft 425 kts 290°
2026-05-05 08:34 -36.66229 141.56575 34255 ft 425 kts 290°
2026-05-05 08:35 -36.64018 141.49729 34251 ft 425 kts 290°
2026-05-05 08:35 -36.61806 141.42897 34251 ft 425 kts 290°
2026-05-05 08:36 -36.59592 141.36073 34254 ft 425 kts 290°
2026-05-05 08:36 -36.57374 141.29254 34254 ft 423 kts 290°
2026-05-05 08:37 -36.55175 141.22507 34254 ft 424 kts 290°
2026-05-05 08:37 -36.52953 141.15709 34254 ft 424 kts 290°
2026-05-05 08:38 -36.50730 141.08920 34256 ft 423 kts 290°
2026-05-05 08:38 -36.48508 141.02152 34257 ft 423 kts 290°
2026-05-05 08:39 -36.46281 140.95384 34257 ft 423 kts 290°
2026-05-05 08:39 -36.44050 140.88616 34257 ft 423 kts 290°
2026-05-05 08:40 -36.41828 140.81888 34257 ft 423 kts 290°
2026-05-05 08:40 -36.39422 140.75212 34263 ft 425 kts 296°
2026-05-05 08:41 -36.36093 140.69125 34258 ft 428 kts 306°
2026-05-05 08:41 -36.32406 140.63331 34256 ft 428 kts 305°
2026-05-05 08:42 -36.28735 140.57530 34261 ft 428 kts 306°
2026-05-05 08:42 -36.25078 140.51766 34258 ft 428 kts 306°
2026-05-05 08:43 -36.21398 140.45978 34261 ft 428 kts 306°
2026-05-05 08:43 -36.17710 140.40188 34220 ft 428 kts 306°
2026-05-05 08:43 -36.15863 140.37291 33945 ft 429 kts 306°
2026-05-05 08:44 -36.14013 140.34391 33616 ft 430 kts 306°
2026-05-05 08:44 -36.12174 140.31511 33302 ft 431 kts 306°
2026-05-05 08:44 -36.10309 140.28593 32983 ft 433 kts 306°
2026-05-05 08:44 -36.08436 140.25665 32670 ft 435 kts 306°
2026-05-05 08:45 -36.06550 140.22719 32368 ft 436 kts 307°
2026-05-05 08:45 -36.04690 140.19818 32060 ft 438 kts 307°
2026-05-05 08:45 -36.02800 140.16873 31744 ft 436 kts 307°
2026-05-05 08:45 -36.00894 140.13903 31372 ft 444 kts 307°
2026-05-05 08:46 -35.98964 140.10899 30995 ft 445 kts 307°
2026-05-05 08:46 -35.97066 140.07950 30641 ft 442 kts 307°
2026-05-05 08:46 -35.95161 140.04992 30265 ft 439 kts 307°
2026-05-05 08:46 -35.93261 140.02043 29841 ft 438 kts 307°
2026-05-05 08:47 -35.91370 139.99111 29422 ft 436 kts 307°
2026-05-05 08:47 -35.89484 139.96190 29006 ft 434 kts 307°
2026-05-05 08:47 -35.87606 139.93281 28599 ft 432 kts 307°
2026-05-05 08:47 -35.85736 139.90389 28199 ft 430 kts 308°
2026-05-05 08:48 -35.83881 139.87522 27797 ft 429 kts 308°
2026-05-05 08:48 -35.82023 139.84652 27307 ft 427 kts 308°
2026-05-05 08:48 -35.80168 139.81791 26797 ft 425 kts 308°
2026-05-05 08:48 -35.78330 139.78957 26298 ft 422 kts 308°
2026-05-05 08:49 -35.77115 139.77085 25975 ft 421 kts 308°
2026-05-05 08:49 -35.74699 139.73365 25334 ft 418 kts 308°
2026-05-05 08:49 -35.72888 139.70581 24857 ft 416 kts 308°
2026-05-05 08:49 -35.71087 139.67813 24391 ft 414 kts 309°
2026-05-05 08:50 -35.69288 139.65051 23932 ft 412 kts 309°
2026-05-05 08:50 -35.68094 139.63220 23587 ft 411 kts 309°
2026-05-05 08:50 -35.65709 139.59564 22867 ft 407 kts 309°
2026-05-05 08:50 -35.64540 139.57774 22517 ft 404 kts 309°
2026-05-05 08:51 -35.62783 139.55085 22027 ft 401 kts 309°
2026-05-05 08:51 -35.61042 139.52422 21608 ft 398 kts 309°
2026-05-05 08:51 -35.59307 139.49772 21188 ft 396 kts 309°
2026-05-05 08:51 -35.57588 139.47147 20799 ft 390 kts 309°
2026-05-05 08:52 -35.55906 139.44580 20388 ft 382 kts 309°
2026-05-05 08:52 -35.54253 139.42059 19951 ft 376 kts 309°
2026-05-05 08:52 -35.52622 139.39573 19519 ft 370 kts 309°
2026-05-05 08:52 -35.51017 139.37128 19093 ft 364 kts 309°
2026-05-05 08:53 -35.49456 139.34754 18676 ft 360 kts 309°
2026-05-05 08:53 -35.47888 139.32368 18213 ft 359 kts 308°
2026-05-05 08:53 -35.46326 139.29998 17731 ft 355 kts 308°
2026-05-05 08:53 -35.44777 139.27649 17265 ft 353 kts 308°
2026-05-05 08:54 -35.43187 139.25350 16801 ft 352 kts 314°
2026-05-05 08:54 -35.41302 139.23465 16309 ft 350 kts 327°
2026-05-05 08:54 -35.39134 139.22121 15818 ft 349 kts 338°
2026-05-05 08:54 -35.36863 139.21089 15387 ft 347 kts 338°
2026-05-05 08:55 -35.34595 139.20046 14905 ft 347 kts 338°
2026-05-05 08:55 -35.32343 139.19003 14426 ft 345 kts 338°
2026-05-05 08:55 -35.30161 139.17990 13939 ft 337 kts 338°
2026-05-05 08:55 -35.28000 139.16988 13416 ft 327 kts 338°
2026-05-05 08:56 -35.25902 139.16015 12895 ft 318 kts 338°
2026-05-05 08:56 -35.23854 139.15066 12385 ft 310 kts 338°
2026-05-05 08:56 -35.21856 139.14140 11884 ft 303 kts 338°
2026-05-05 08:56 -35.19902 139.13236 11386 ft 297 kts 338°
2026-05-05 08:57 -35.17989 139.12353 10901 ft 291 kts 338°
2026-05-05 08:57 -35.16109 139.11484 10424 ft 286 kts 338°
2026-05-05 08:57 -35.14267 139.10633 9927 ft 281 kts 338°
2026-05-05 08:57 -35.12455 139.09796 9409 ft 276 kts 338°
2026-05-05 08:58 -35.10657 139.08966 8899 ft 277 kts 338°
2026-05-05 08:58 -35.08842 139.08127 8404 ft 280 kts 338°
2026-05-05 08:58 -35.07074 139.07114 7897 ft 281 kts 327°
2026-05-05 08:58 -35.05506 139.05681 7417 ft 282 kts 316°
2026-05-05 08:59 -35.04085 139.04057 6947 ft 284 kts 315°
2026-05-05 08:59 -35.02631 139.02411 6449 ft 286 kts 316°
2026-05-05 08:59 -35.01164 139.00760 5933 ft 287 kts 316°
2026-05-05 08:59 -34.99701 138.99116 5413 ft 282 kts 317°
2026-05-05 09:00 -34.98304 138.97548 5275 ft 262 kts 317°
2026-05-05 09:00 -34.97009 138.96098 5146 ft 243 kts 317°
2026-05-05 09:00 -34.95822 138.94768 5046 ft 225 kts 317°
2026-05-05 09:00 -34.94713 138.93528 4931 ft 207 kts 317°
2026-05-05 09:01 -34.93705 138.92403 4952 ft 184 kts 317°
2026-05-05 09:01 -34.92758 138.91344 5125 ft 189 kts 317°
2026-05-05 09:01 -34.91806 138.90280 5201 ft 182 kts 317°
2026-05-05 09:01 -34.90872 138.89236 5104 ft 182 kts 317°
2026-05-05 09:02 -34.89972 138.88229 4986 ft 170 kts 318°
2026-05-05 09:02 -34.89086 138.87242 4798 ft 172 kts 317°
2026-05-05 09:02 -34.88181 138.86237 4542 ft 183 kts 317°
2026-05-05 09:02 -34.87241 138.85193 4308 ft 182 kts 317°
2026-05-05 09:03 -34.86304 138.84150 4069 ft 182 kts 316°
2026-05-05 09:03 -34.85372 138.83109 3893 ft 180 kts 316°
2026-05-05 09:03 -34.84447 138.82077 3814 ft 181 kts 316°
2026-05-05 09:03 -34.83520 138.81042 3815 ft 181 kts 316°
2026-05-05 09:04 -34.82640 138.80061 3814 ft 166 kts 316°
2026-05-05 09:04 -34.81790 138.79114 3812 ft 167 kts 316°
2026-05-05 09:04 -34.80939 138.78166 3808 ft 166 kts 316°
2026-05-05 09:04 -34.80087 138.77210 3811 ft 165 kts 314°
2026-05-05 09:05 -34.79618 138.75974 3813 ft 165 kts 273°
2026-05-05 09:05 -34.79962 138.74665 3812 ft 166 kts 237°
2026-05-05 09:05 -34.80682 138.73563 3805 ft 166 kts 229°
2026-05-05 09:05 -34.81451 138.72511 3785 ft 167 kts 230°
2026-05-05 09:06 -34.82200 138.71435 3644 ft 166 kts 231°
2026-05-05 09:06 -34.82933 138.70377 3434 ft 165 kts 230°
2026-05-05 09:06 -34.83672 138.69312 3211 ft 164 kts 230°
2026-05-05 09:06 -34.84407 138.68251 2988 ft 164 kts 230°
2026-05-05 09:07 -34.85141 138.67193 2770 ft 162 kts 230°
2026-05-05 09:07 -34.85874 138.66135 2546 ft 163 kts 230°
2026-05-05 09:07 -34.86605 138.65081 2336 ft 161 kts 230°
2026-05-05 09:07 -34.87322 138.64046 2113 ft 160 kts 230°
2026-05-05 09:08 -34.88001 138.63065 1894 ft 147 kts 229°
2026-05-05 09:08 -34.88662 138.62111 1703 ft 147 kts 229°
2026-05-05 09:08 -34.89322 138.61158 1495 ft 146 kts 230°
2026-05-05 09:08 -34.89984 138.60203 1298 ft 147 kts 229°
2026-05-05 09:09 -34.90640 138.59254 1097 ft 146 kts 230°
2026-05-05 09:09 -34.91291 138.58314 901 ft 145 kts 230°
2026-05-05 09:09 -34.91951 138.57372 657 ft 146 kts 230°
2026-05-05 09:09 -34.92599 138.56437 470 ft 144 kts 231°
2026-05-05 09:10 -34.93240 138.55504 293 ft 144 kts 231°
2026-05-05 09:10 -34.93889 138.54579 104 ft 144 kts 231°
2026-05-05 09:10 -34.94511 138.53675 25 ft 136 kts 231°
2026-05-05 09:10 -34.94984 138.52981 19 ft 57 kts 232°
2026-05-05 09:11 -34.95105 138.52800 16 ft 43 kts 230°
2026-05-05 09:11 -34.95232 138.52563 14 ft 24 kts 279°
2026-05-05 09:11 -34.95194 138.52506 14 ft 0 kts 336°
2026-05-05 09:11 -34.95189 138.52502 14 ft 3 kts 329°
2026-05-05 09:12 -34.95162 138.52479 15 ft 6 kts 326°
2026-05-05 09:12 -34.95122 138.52454 19 ft 7 kts 336°
2026-05-05 09:12 -34.95072 138.52446 18 ft 9 kts
2026-05-05 09:12 -34.94990 138.52490 18 ft 16 kts 38°
2026-05-05 09:13 -34.94892 138.52587 18 ft 19 kts 39°
2026-05-05 09:13 -34.94785 138.52686 21 ft 20 kts 36°
2026-05-05 09:13 -34.94675 138.52785 21 ft 19 kts 37°
2026-05-05 09:13 -34.94568 138.52882 23 ft 20 kts 36°
2026-05-05 09:14 -34.94455 138.52999 20 ft 22 kts 54°
2026-05-05 09:14 -34.94476 138.53172 20 ft 23 kts 125°
2026-05-05 09:14 -34.94498 138.53359 16 ft 26 kts 62°
2026-05-05 09:14 -34.94390 138.53502 18 ft 19 kts 50°
2026-05-05 09:15 -34.94325 138.53604 16 ft 16 kts 52°
2026-05-05 09:15 -34.94230 138.53640 17 ft 15 kts 343°
2026-05-05 09:15 -34.94138 138.53672 20 ft 12 kts 58°
2026-05-05 09:15 -34.94099 138.53759 22 ft 12 kts 61°
2026-05-05 09:16 -34.94051 138.53838 20 ft 10 kts 48°
2026-05-05 09:16 -34.93993 138.53850 23 ft 2 kts 331°
2026-05-05 09:16 -34.94007 138.53860 21 ft 7 kts 331°
2026-05-05 09:16 -34.94020 138.53869 21 ft 7 kts
2026-05-05 09:17 -34.93955 138.53910 24 ft 13 kts 37°
2026-05-05 09:17 -34.93892 138.53899 27 ft 0 kts 317°
2026-05-05 09:17 -34.93887 138.53894 28 ft 0 kts 318°